TimeCDT,TemperatureF,Dew PointF,Humidity,Sea Level PressureIn,VisibilityMPH,Wind Direction,Wind SpeedMPH,Gust SpeedMPH,PrecipitationIn,Events,Conditions,WindDirDegrees,DateUTC
12:15 AM,61.0,58.1,90,30.22,7.0,North,3.5,-,N/A,,Unknown,360,2013-10-29 05:15:00
12:35 AM,61.2,58.3,90,30.22,7.0,Calm,Calm,-,N/A,,Unknown,0,2013-10-29 05:35:00
12:55 AM,60.3,57.6,91,30.21,5.0,Calm,Calm,-,N/A,,Mist,0,2013-10-29 05:55:00
1:15 AM,59.9,57.2,91,30.21,4.0,Calm,Calm,-,N/A,,Mist,0,2013-10-29 06:15:00
1:35 AM,60.3,57.7,91,30.21,7.0,Calm,Calm,-,N/A,,Clear,0,2013-10-29 06:35:00
1:55 AM,59.2,56.7,91,30.21,5.0,Calm,Calm,-,N/A,,Clear,0,2013-10-29 06:55:00
2:15 AM,59.5,57.0,91,30.21,1.0,Calm,Calm,-,N/A,,Mist,0,2013-10-29 07:15:00
2:35 AM,58.5,55.8,91,30.21,0.5,Calm,Calm,-,N/A,Fog,Fog,0,2013-10-29 07:35:00
2:55 AM,57.4,55.0,92,30.21,0.2,Calm,Calm,-,N/A,Fog,Fog,0,2013-10-29 07:55:00
3:15 AM,57.4,54.9,91,30.21,0.5,Calm,Calm,-,N/A,Fog,Fog,0,2013-10-29 08:15:00
3:35 AM,58.1,55.6,91,30.21,0.5,Calm,Calm,-,N/A,Fog,Fog,0,2013-10-29 08:35:00
3:55 AM,57.4,55.2,92,30.21,0.2,Calm,Calm,-,N/A,Fog,Fog,0,2013-10-29 08:55:00
4:15 AM,57.9,55.8,92,30.21,0.2,Calm,Calm,-,N/A,Fog,Fog,0,2013-10-29 09:15:00
4:35 AM,57.4,55.0,92,30.21,0.5,Calm,Calm,-,N/A,Fog,Fog,0,2013-10-29 09:35:00
4:55 AM,57.2,54.7,91,30.21,0.2,Calm,Calm,-,N/A,Fog,Fog,0,2013-10-29 09:55:00
5:15 AM,56.8,54.5,92,30.22,0.2,Calm,Calm,-,N/A,Fog,Fog,0,2013-10-29 10:15:00
5:35 AM,56.5,54.1,92,30.22,0.5,Calm,Calm,-,N/A,Fog,Fog,0,2013-10-29 10:35:00
5:55 AM,56.5,54.1,92,30.22,0.8,Calm,Calm,-,N/A,,Scattered Clouds,0,2013-10-29 10:55:00
6:15 AM,55.6,53.2,92,30.23,1.2,North,3.5,-,N/A,,Overcast,360,2013-10-29 11:15:00
6:35 AM,56.1,53.8,92,30.24,0.2,Calm,Calm,-,N/A,Fog,Fog,0,2013-10-29 11:35:00
6:55 AM,56.7,54.3,92,30.24,0.5,Calm,Calm,-,N/A,Fog,Fog,0,2013-10-29 11:55:00
7:15 AM,56.5,54.1,92,30.24,0.8,Calm,Calm,-,N/A,,Overcast,0,2013-10-29 12:15:00
7:35 AM,56.5,54.1,92,30.24,2.0,Calm,Calm,-,N/A,,Overcast,0,2013-10-29 12:35:00
7:55 AM,57.2,55.0,92,30.24,5.0,Calm,Calm,-,N/A,,Scattered Clouds,0,2013-10-29 12:55:00
8:15 AM,59.0,56.5,91,30.25,4.0,Calm,Calm,-,N/A,,Clear,0,2013-10-29 13:15:00
8:35 AM,59.9,57.6,92,30.26,5.0,Calm,Calm,-,N/A,,Clear,0,2013-10-29 13:35:00
8:55 AM,61.7,59.4,92,30.26,7.0,Calm,Calm,-,N/A,,Clear,0,2013-10-29 13:55:00
9:15 AM,64.0,61.7,92,30.26,10.0,North,-9999.0,-,N/A,,Clear,0,2013-10-29 14:15:00
9:35 AM,66.2,63.5,91,30.26,10.0,North,-9999.0,-,N/A,,Clear,0,2013-10-29 14:35:00
9:55 AM,69.1,63.7,83,30.27,10.0,North,-9999.0,-,N/A,,Clear,0,2013-10-29 14:55:00
10:15 AM,71.4,64.6,79,30.26,10.0,ESE,4.6,-,N/A,,Clear,120,2013-10-29 15:15:00
10:35 AM,74.8,64.4,70,30.26,10.0,SE,5.8,-,N/A,,Clear,130,2013-10-29 15:35:00
10:55 AM,76.3,64.2,66,30.26,10.0,ESE,5.8,-,N/A,,Clear,120,2013-10-29 15:55:00
11:15 AM,77.9,64.6,63,30.26,10.0,North,-9999.0,-,N/A,,Unknown,0,2013-10-29 16:15:00
11:35 AM,78.4,64.2,62,30.26,10.0,SSE,9.2,-,N/A,,Unknown,150,2013-10-29 16:35:00
11:55 AM,78.1,63.5,61,30.25,10.0,SSE,9.2,-,N/A,,Unknown,150,2013-10-29 16:55:00
12:15 PM,79.5,63.0,57,30.25,10.0,North,-9999.0,-,N/A,,Unknown,0,2013-10-29 17:15:00
12:35 PM,79.7,62.6,56,30.24,10.0,SSE,11.5,-,N/A,,Unknown,160,2013-10-29 17:35:00
12:55 PM,80.1,61.2,52,30.23,10.0,North,-9999.0,-,N/A,,Unknown,0,2013-10-29 17:55:00
1:15 PM,80.2,61.2,52,30.22,10.0,SSE,9.2,-,N/A,,Unknown,150,2013-10-29 18:15:00
1:35 PM,80.6,61.0,51,30.21,10.0,SSE,11.5,-,N/A,,Unknown,160,2013-10-29 18:35:00
1:55 PM,80.6,60.4,50,30.20,10.0,SSE,8.1,-,N/A,,Unknown,160,2013-10-29 18:55:00
2:15 PM,81.1,59.0,47,30.20,10.0,SSE,8.1,-,N/A,,Unknown,150,2013-10-29 19:15:00
2:35 PM,81.3,59.0,46,30.20,10.0,North,-9999.0,-,N/A,,Clear,0,2013-10-29 19:35:00
2:55 PM,81.0,59.2,47,30.19,10.0,SSE,6.9,-,N/A,,Clear,160,2013-10-29 19:55:00
3:15 PM,80.4,58.6,47,30.19,10.0,North,-9999.0,-,N/A,,Clear,0,2013-10-29 20:15:00
3:35 PM,81.9,59.2,46,30.19,10.0,North,-9999.0,-,N/A,,Clear,0,2013-10-29 20:35:00
3:55 PM,80.8,58.8,47,30.18,10.0,North,-9999.0,-,N/A,,Clear,0,2013-10-29 20:55:00
4:15 PM,81.1,57.7,45,30.18,10.0,North,-9999.0,-,N/A,,Clear,0,2013-10-29 21:15:00
4:35 PM,80.6,58.6,47,30.18,10.0,SE,6.9,-,N/A,,Clear,140,2013-10-29 21:35:00
4:55 PM,79.2,59.0,50,30.18,10.0,North,-9999.0,-,N/A,,Clear,0,2013-10-29 21:55:00
5:15 PM,78.3,59.0,51,30.18,10.0,SSE,6.9,-,N/A,,Clear,150,2013-10-29 22:15:00
5:35 PM,77.4,59.0,53,30.18,10.0,SSE,5.8,-,N/A,,Clear,150,2013-10-29 22:35:00
5:55 PM,76.3,60.1,57,30.18,10.0,SSE,4.6,-,N/A,,Clear,150,2013-10-29 22:55:00
6:15 PM,74.7,61.0,62,30.19,10.0,SSE,5.8,-,N/A,,Clear,160,2013-10-29 23:15:00
6:35 PM,73.2,61.9,68,30.20,10.0,SSE,4.6,-,N/A,,Clear,150,2013-10-29 23:35:00
6:55 PM,72.3,62.2,70,30.20,10.0,SSE,4.6,-,N/A,,Unknown,150,2013-10-29 23:55:00
7:15 PM,71.6,62.8,74,30.21,10.0,SSE,4.6,-,N/A,,Unknown,160,2013-10-30 00:15:00
7:35 PM,70.9,63.0,76,30.21,10.0,SSE,3.5,-,N/A,,Unknown,150,2013-10-30 00:35:00
7:55 PM,70.3,62.8,77,30.21,10.0,Calm,Calm,-,N/A,,Unknown,0,2013-10-30 00:55:00
8:15 PM,69.8,62.6,78,30.22,10.0,Calm,Calm,-,N/A,,Unknown,0,2013-10-30 01:15:00
8:35 PM,66.7,61.9,84,30.22,10.0,Calm,Calm,-,N/A,,Unknown,0,2013-10-30 01:35:00
8:55 PM,65.7,61.3,86,30.23,10.0,Calm,Calm,-,N/A,,Clear,0,2013-10-30 01:55:00
9:15 PM,66.0,61.2,84,30.23,10.0,Calm,Calm,-,N/A,,Clear,0,2013-10-30 02:15:00
9:35 PM,64.6,60.8,88,30.23,10.0,Calm,Calm,-,N/A,,Clear,0,2013-10-30 02:35:00
9:55 PM,63.7,60.4,89,30.23,10.0,Calm,Calm,-,N/A,,Unknown,0,2013-10-30 02:55:00
10:15 PM,63.1,59.9,89,30.23,10.0,Calm,Calm,-,N/A,,Unknown,0,2013-10-30 03:15:00
10:35 PM,63.0,59.9,90,30.23,7.0,Calm,Calm,-,N/A,,Clear,0,2013-10-30 03:35:00
10:55 PM,62.4,59.2,89,30.23,7.0,Calm,Calm,-,N/A,,Unknown,0,2013-10-30 03:55:00
11:15 PM,61.7,58.3,89,30.23,10.0,Calm,Calm,-,N/A,,Unknown,0,2013-10-30 04:15:00
11:35 PM,60.1,56.8,89,30.23,10.0,Calm,Calm,-,N/A,,Unknown,0,2013-10-30 04:35:00
11:55 PM,60.6,57.6,90,30.22,10.0,Calm,Calm,-,N/A,,Unknown,0,2013-10-30 04:55:00